"Pseudo-MPEC" for P10IjsX

Created 2018 Jul 13 23:18:15 UT using Find_Orb

Click here for an explanation of pseudo-MPECs

 
 Astrometry: 
     P10IjsX  C2018 07 10NfAstrometrygMQ43dKZ`$jXk4EeBO[Y:k`wXZ(,FxMNOaam3u-kF51
     P10IjsX  C2018 07 10?eG1TlPPvec6VJ34^ot+H3Q=NE*IRuirBTi*Vep@UDio(8Cg`y8=F51
     P10IjsX  C2018 07 10N7!Riwu;sOub3R']L]p3xVf%V@qMo.N!Q%vmy%h;ltwPFZn:[oXkF51
     P10IjsX |C2018 07 1157!U.N$pW%H\!o5Z7QM2N#XbKO`D4Q3Shh[G_8L-u(V0bm;5%Cl8807
     P10IjsX |C2018 07 11+qgaWePcxV@xwg]6:redacted;Devu^n7NM4te@F,[#q1foA\6tZ807
     P10IjsX |C2018 07 12W1JqV5m0d,XU4`j.K0TXE2)1RyRiiLIF^Mrnb?XL%k(9QrV\0h[B807
     P10IjsX |C2018 07 12rlOKEnKAncH@10`D6e5rY@D[PZk?hk.qp-i3d2v2Sbvm,22A_k;]807
     P10IjsX |C2018 07 12EL4n/BeY*Tw=r0m*=Uda8v\QBQ5w-N;AseeB%ca^Go\gF2q=Aw')807
     P10IjsX  C2018 07 13jW?uSq00H=^c^[hv'#l=B3cT_Zu6;XLRV#f6K^N4vcWR`^V,Uxs,F51
     P10IjsX  C2018 07 13XR[oGnOsF+SILCt0Lb`5s9O1I[fG/^-gjh\7\f1\qd+CbY-4vHIoF51
     P10IjsX  C2018 07 13aS[0hG1w`reP`!hwgSY_=?\YxDmtlqD-J%q8\6@TUqnV9EDl%]cxF51
     P10IjsX  C2018 07 13?CP=6K/-Ip1(AJ.#:)1oK9Ko+*Rn\Lk3i(^Sia#UiE%QsZ4NEOCPF51

Station data:
(807) Cerro Tololo Observatory, La Serena  (S30.169136 W70.805900)  Chile.
   1.5-m Ritchey-Chrétien.
(F51) Pan-STARRS 1, Haleakala  (N20.707235 W156.255910)  US/Hawaii.
   Observers N. Primak, A. Schultz, S. Watters, J. Thiel, T. Goggia. Measurer
   PS1 Science Consortium. 1.8-m Ritchey-Chrétien + CCD.

Orbital elements:  P10IjsX
   Perihelion 2018 Nov 16.421121 +/- 0.203 TT = 10:06:24 (JD 2458438.921121)
Epoch 2018 Jul 13.0 TT = JDT 2458312.5   Earth MOID: 0.0277   AutoNEOCP
M 258.33047 +/- 0.31                (J2000 ecliptic)
n   0.80421314 +/- 0.00182          Peri.  108.91494 +/- 0.06
a   1.14521916 +/- 0.00173          Node   305.52597 +/- 0.030
e   0.2030626 +/- 0.00216           Incl.    7.49614 +/- 0.08
P   1.23/447.63d           H 24.1   G  0.15   U  8.5  
q 0.91266794 +/- 0.0012    Q 1.37777037 +/- 0.0045
From 12 observations 2018 July 10-13; mean residual 0".13
Residuals in arcseconds: 
180710 F51  .01-  .12-    180711 807  .12-  .08-    180713 F51  .12-  .04-    
180710 F51  .09-  .08+    180712 807  .18+  .15-    180713 F51  .04+  .15-    
180710 F51  .16+  .09+    180712 807  .07+  .09-    180713 F51  .06-  .03-    
180711 807  .02-  .05-    180712 807  .12-  .37+    180713 F51  .11+  .19+    

Ephemerides (geocentric):
Date (UTC) HH   RA              Dec         delta   r     elong  mag " sig PA
---- -- -- --  -------------   -----------  ------ ------ -----  --- ---- ---
2018 07 13 23  20 07 27.359   -30 10 59.48  .21837 1.2312 168.4 21.8  .38 144
2018 07 14 00  20 07 20.196   -30 10 24.66  .21822 1.2311 168.4 21.8  .39 143
2018 07 14 01  20 07 13.023   -30 09 49.75  .21808 1.2310 168.5 21.8  .40 143
2018 07 14 02  20 07 05.840   -30 09 14.73  .21793 1.2309 168.5 21.8  .41 142
2018 07 14 03  20 06 58.646   -30 08 39.60  .21778 1.2308 168.6 21.8  .42 142
2018 07 14 04  20 06 51.442   -30 08 04.38  .21764 1.2306 168.6 21.8  .43 141
2018 07 14 05  20 06 44.227   -30 07 29.06  .21749 1.2305 168.7 21.8  .45 141
2018 07 14 06  20 06 37.002   -30 06 53.63  .21734 1.2304 168.7 21.8  .46 141
2018 07 14 07  20 06 29.766   -30 06 18.10  .21720 1.2303 168.8 21.8  .47 140
2018 07 14 08  20 06 22.520   -30 05 42.47  .21705 1.2302 168.8 21.8  .48 140
2018 07 14 09  20 06 15.264   -30 05 06.74  .21691 1.2301 168.8 21.8  .50 139
2018 07 14 10  20 06 07.998   -30 04 30.90  .21676 1.2299 168.9 21.8  .51 139
2018 07 14 11  20 06 00.721   -30 03 54.96  .21662 1.2298 168.9 21.8  .52 139
2018 07 14 12  20 05 53.433   -30 03 18.92  .21647 1.2297 169.0 21.8  .54 138
2018 07 14 13  20 05 46.136   -30 02 42.78  .21633 1.2296 169.0 21.8  .55 138
2018 07 14 14  20 05 38.828   -30 02 06.53  .21618 1.2295 169.1 21.8  .57 138
2018 07 14 15  20 05 31.510   -30 01 30.18  .21604 1.2294 169.1 21.8  .58 138
2018 07 14 16  20 05 24.182   -30 00 53.72  .21590 1.2292 169.2 21.8  .59 137
2018 07 14 17  20 05 16.844   -30 00 17.17  .21575 1.2291 169.2 21.8  .61 137
2018 07 14 18  20 05 09.495   -29 59 40.50  .21561 1.2290 169.3 21.8  .62 137
2018 07 14 19  20 05 02.137   -29 59 03.74  .21547 1.2289 169.3 21.8  .64 137
2018 07 14 20  20 04 54.768   -29 58 26.87  .21532 1.2288 169.3 21.8  .65 136
2018 07 14 21  20 04 47.389   -29 57 49.89  .21518 1.2286 169.4 21.8  .67 136
2018 07 14 22  20 04 40.000   -29 57 12.81  .21504 1.2285 169.4 21.8  .69 136
2018 07 14 23  20 04 32.601   -29 56 35.62  .21489 1.2284 169.5 21.8  .70 136
2018 07 15 00  20 04 25.192   -29 55 58.33  .21475 1.2283 169.5 21.8  .72 136
2018 07 15 01  20 04 17.773   -29 55 20.94  .21461 1.2282 169.6 21.8  .73 136
2018 07 15 02  20 04 10.344   -29 54 43.44  .21447 1.2281 169.6 21.8  .75 135
2018 07 15 03  20 04 02.905   -29 54 05.83  .21433 1.2279 169.6 21.8  .77 135
2018 07 15 04  20 03 55.456   -29 53 28.12  .21418 1.2278 169.7 21.8  .78 135
2018 07 15 05  20 03 47.997   -29 52 50.30  .21404 1.2277 169.7 21.7  .80 135
2018 07 15 06  20 03 40.529   -29 52 12.37  .21390 1.2276 169.8 21.7  .82 135
2018 07 15 07  20 03 33.050   -29 51 34.34  .21376 1.2275 169.8 21.7  .84 135
2018 07 15 08  20 03 25.561   -29 50 56.21  .21362 1.2273 169.8 21.7  .85 135
2018 07 15 09  20 03 18.063   -29 50 17.96  .21348 1.2272 169.9 21.7  .87 134
2018 07 15 10  20 03 10.555   -29 49 39.61  .21334 1.2271 169.9 21.7  .89 134
2018 07 15 11  20 03 03.037   -29 49 01.15  .21320 1.2270 170.0 21.7  .91 134
2018 07 15 12  20 02 55.509   -29 48 22.59  .21306 1.2269 170.0 21.7  .93 134
2018 07 15 13  20 02 47.972   -29 47 43.92  .21292 1.2267 170.0 21.7  .94 134
2018 07 15 14  20 02 40.424   -29 47 05.14  .21278 1.2266 170.1 21.7  .96 134
2018 07 15 15  20 02 32.867   -29 46 26.25  .21264 1.2265 170.1 21.7  .98 134
2018 07 15 16  20 02 25.301   -29 45 47.25  .21250 1.2264 170.2 21.7  1.0 134
2018 07 15 17  20 02 17.724   -29 45 08.15  .21237 1.2263 170.2 21.7  1.0 134
2018 07 15 18  20 02 10.138   -29 44 28.94  .21223 1.2261 170.2 21.7  1.0 134
2018 07 15 19  20 02 02.543   -29 43 49.62  .21209 1.2260 170.3 21.7  1.1 134
2018 07 15 20  20 01 54.938   -29 43 10.19  .21195 1.2259 170.3 21.7  1.1 134
2018 07 15 21  20 01 47.323   -29 42 30.65  .21181 1.2258 170.4 21.7  1.1 133
2018 07 15 22  20 01 39.699   -29 41 51.01  .21167 1.2257 170.4 21.7  1.1 133